Hourly Weather Otrokiv

Today, 24 July, Saturday

Time Temperature Precipitation Wind Pressure Humidity
00:00 +16°C° 0 mm 2 mps 739 mmHg 77%
01:00 +16°C° 0 mm 2 mps 739 mmHg 77%
02:00 +16°C° 0 mm 1 mps 739 mmHg 77%
03:00 +16°C° 0 mm 1 mps 739 mmHg 77%
04:00 +16°C° 0 mm 1 mps 739 mmHg 76%
05:00 +16°C° 0 mm 1 mps 738 mmHg 76%
06:00 +18°C° 0 mm 1 mps 739 mmHg 72%
07:00 +20°C° 0 mm 1 mps 739 mmHg 69%
08:00 +22°C° 0 mm 1 mps 739 mmHg 64%
09:00 +23°C° 0 mm 1 mps 739 mmHg 59%
10:00 +24°C° 0 mm 1 mps 739 mmHg 53%
11:00 +25°C° 0 mm 1 mps 740 mmHg 48%
12:00 +25°C° 0 mm 1 mps 739 mmHg 48%
13:00 +26°C° 0 mm 1 mps 739 mmHg 48%
14:00 +26°C° 0 mm 1 mps 739 mmHg 47%
15:00 +26°C° 0 mm 1 mps 739 mmHg 48%
16:00 +26°C° 0 mm 1 mps 739 mmHg 48%
17:00 +26°C° 0 mm 1 mps 739 mmHg 49%
18:00 +24°C° 0 mm 1 mps 739 mmHg 53%
19:00 +22°C° 0 mm 1 mps 739 mmHg 58%
20:00 +21°C° 0 mm 1 mps 739 mmHg 62%
21:00 +20°C° 0 mm 1 mps 740 mmHg 64%
22:00 +19°C° 0 mm 1 mps 740 mmHg 66%
23:00 +19°C° 0 mm 1 mps 740 mmHg 67%

Tomorrow, 25 July, Sunday

Time Temperature Precipitation Wind Pressure Humidity
00:00 +19°C° 0 mm 1 mps 740 mmHg 68%
01:00 +18°C° 0 mm 1 mps 740 mmHg 68%
02:00 +18°C° 0 mm 1 mps 740 mmHg 69%
03:00 +18°C° 0 mm 1 mps 740 mmHg 70%
04:00 +18°C° 0 mm 1 mps 740 mmHg 70%
05:00 +18°C° 0 mm 1 mps 740 mmHg 71%
06:00 +19°C° 0 mm 1 mps 740 mmHg 67%
07:00 +20°C° 0 mm 2 mps 740 mmHg 63%
08:00 +23°C° 0 mm 2 mps 741 mmHg 59%
09:00 +24°C° 0 mm 2 mps 741 mmHg 55%
10:00 +26°C° 0 mm 3 mps 741 mmHg 52%
11:00 +27°C° 0 mm 3 mps 741 mmHg 48%
12:00 +27°C° 0 mm 3 mps 741 mmHg 47%
13:00 +28°C° 0 mm 3 mps 741 mmHg 46%
14:00 +28°C° 0 mm 3 mps 741 mmHg 46%
15:00 +28°C° 0 mm 3 mps 740 mmHg 49%
16:00 +27°C° 0 mm 3 mps 740 mmHg 52%
17:00 +27°C° 0 mm 3 mps 740 mmHg 55%
18:00 +25°C° 0 mm 3 mps 740 mmHg 59%
19:00 +24°C° 0 mm 3 mps 740 mmHg 63%
20:00 +21°C° 0 mm 3 mps 740 mmHg 67%
21:00 +20°C° 0 mm 3 mps 740 mmHg 68%
22:00 +20°C° 0 mm 3 mps 740 mmHg 69%
23:00 +19°C° 0 mm 3 mps 741 mmHg 70%

Day after tomorrow, 26 July, Monday

Time Temperature Precipitation Wind Pressure Humidity
00:00 +19°C° 0 mm 3 mps 740 mmHg 69%
01:00 +19°C° 0 mm 3 mps 740 mmHg 68%
02:00 +19°C° 0 mm 3 mps 740 mmHg 67%
03:00 +18°C° 0 mm 3 mps 740 mmHg 67%
04:00 +18°C° 0 mm 3 mps 740 mmHg 68%
05:00 +17°C° 0 mm 3 mps 740 mmHg 69%
06:00 +19°C° 0 mm 4 mps 740 mmHg 67%
07:00 +21°C° 0 mm 4 mps 741 mmHg 64%
08:00 +23°C° 0 mm 5 mps 741 mmHg 61%
09:00 +24°C° 0 mm 6 mps 741 mmHg 56%
10:00 +27°C° 0 mm 6 mps 741 mmHg 51%
11:00 +28°C° 0 mm 7 mps 741 mmHg 47%
12:00 +29°C° 0 mm 7 mps 741 mmHg 44%
13:00 +30°C° 0 mm 6 mps 741 mmHg 41%
14:00 +30°C° 0 mm 6 mps 741 mmHg 39%
15:00 +30°C° 0 mm 5 mps 741 mmHg 42%
16:00 +29°C° 0 mm 5 mps 740 mmHg 45%
17:00 +29°C° 0 mm 4 mps 740 mmHg 48%
18:00 +27°C° 0 mm 3 mps 740 mmHg 52%
19:00 +26°C° 0 mm 3 mps 740 mmHg 55%
20:00 +24°C° 0 mm 3 mps 740 mmHg 59%
21:00 +22°C° 0 mm 3 mps 740 mmHg 61%
22:00 +21°C° 0 mm 3 mps 740 mmHg 64%
23:00 +21°C° 0 mm 3 mps 740 mmHg 66%

27 July, Tuesday

Time Temperature Precipitation Wind Pressure Humidity
00:00 +20°C° 0 mm 3 mps 740 mmHg 67%
01:00 +20°C° 0 mm 3 mps 740 mmHg 68%
02:00 +19°C° 0 mm 3 mps 740 mmHg 70%
03:00 +19°C° 0 mm 3 mps 740 mmHg 70%
04:00 +19°C° 0 mm 3 mps 740 mmHg 71%
05:00 +18°C° 0 mm 3 mps 740 mmHg 72%
06:00 +20°C° 0 mm 3 mps 740 mmHg 67%
07:00 +22°C° 0 mm 4 mps 740 mmHg 63%
08:00 +25°C° 0 mm 5 mps 740 mmHg 59%
09:00 +26°C° 0 mm 6 mps 740 mmHg 55%
10:00 +28°C° 0 mm 6 mps 740 mmHg 51%
11:00 +29°C° 0 mm 6 mps 740 mmHg 48%
12:00 +30°C° 0 mm 6 mps 740 mmHg 47%
13:00 +32°C° 0 mm 6 mps 740 mmHg 46%
14:00 +33°C° 0 mm 5 mps 740 mmHg 44%
15:00 +33°C° 0 mm 5 mps 740 mmHg 46%
16:00 +33°C° 0 mm 5 mps 739 mmHg 48%
17:00 +33°C° 0 mm 5 mps 739 mmHg 50%
18:00 +30°C° 0 mm 4 mps 739 mmHg 56%
19:00 +28°C° 0 mm 4 mps 738 mmHg 61%
20:00 +26°C° 0 mm 3 mps 738 mmHg 67%
21:00 +25°C° 0.2 mm 3 mps 738 mmHg 71%
22:00 +24°C° 0.2 mm 3 mps 738 mmHg 75%
23:00 +21°C° 0.2 mm 3 mps 738 mmHg 79%

28 July, Wednesday

Time Temperature Precipitation Wind Pressure Humidity
00:00 +21°C° 0.5 mm 3 mps 738 mmHg 81%
01:00 +20°C° 0.5 mm 3 mps 738 mmHg 82%
02:00 +20°C° 0.5 mm 3 mps 737 mmHg 84%
03:00 +20°C° 0.3 mm 3 mps 737 mmHg 85%
04:00 +20°C° 0.3 mm 2 mps 737 mmHg 86%
05:00 +19°C° 0.3 mm 2 mps 737 mmHg 87%
06:00 +21°C° 0 mm 2 mps 737 mmHg 83%
07:00 +23°C° 0 mm 2 mps 737 mmHg 79%
08:00 +25°C° 0 mm 2 mps 737 mmHg 75%
09:00 +27°C° 0 mm 2 mps 738 mmHg 69%
10:00 +29°C° 0 mm 2 mps 738 mmHg 62%
11:00 +31°C° 0 mm 2 mps 738 mmHg 55%
12:00 +32°C° 0 mm 2 mps 737 mmHg 51%
13:00 +33°C° 0 mm 3 mps 737 mmHg 48%
14:00 +34°C° 0 mm 3 mps 737 mmHg 44%
15:00 +34°C° 0 mm 3 mps 737 mmHg 44%
16:00 +34°C° 0 mm 3 mps 737 mmHg 45%
17:00 +34°C° 0 mm 2 mps 736 mmHg 46%
18:00 +31°C° 0 mm 2 mps 736 mmHg 53%
19:00 +29°C° 0 mm 2 mps 736 mmHg 59%
20:00 +27°C° 0 mm 1 mps 736 mmHg 66%
21:00 +26°C° 0.1 mm 1 mps 736 mmHg 70%
22:00 +25°C° 0.1 mm 2 mps 736 mmHg 73%
23:00 +24°C° 0.1 mm 2 mps 736 mmHg 77%

29 July, Thursday

Time Temperature Precipitation Wind Pressure Humidity
00:00 +23°C° 0.1 mm 2 mps 736 mmHg 79%
01:00 +23°C° 0.1 mm 1 mps 736 mmHg 80%
02:00 +22°C° 0.1 mm 1 mps 736 mmHg 82%
03:00 +22°C° 0 mm 1 mps 735 mmHg 82%
04:00 +22°C° 0 mm 1 mps 735 mmHg 82%
05:00 +20°C° 0 mm 0 mps 735 mmHg 82%
06:00 +24°C° 0 mm 1 mps 736 mmHg 77%
07:00 +25°C° 0 mm 1 mps 736 mmHg 72%
08:00 +27°C° 0 mm 2 mps 736 mmHg 68%
09:00 +28°C° 0 mm 2 mps 736 mmHg 64%
10:00 +29°C° 0 mm 2 mps 737 mmHg 61%
11:00 +30°C° 0 mm 2 mps 737 mmHg 58%
12:00 +31°C° 0.1 mm 2 mps 737 mmHg 55%
13:00 +33°C° 0.1 mm 3 mps 737 mmHg 53%
14:00 +33°C° 0.1 mm 3 mps 737 mmHg 50%
15:00 +33°C° 0 mm 4 mps 736 mmHg 53%
16:00 +32°C° 0 mm 5 mps 736 mmHg 56%
17:00 +30°C° 0 mm 6 mps 736 mmHg 60%
18:00 +28°C° 0.2 mm 5 mps 736 mmHg 67%
19:00 +26°C° 0.2 mm 4 mps 737 mmHg 75%
20:00 +24°C° 0.2 mm 3 mps 737 mmHg 83%
21:00 +24°C° 0 mm 2 mps 737 mmHg 86%
22:00 +23°C° 0 mm 2 mps 737 mmHg 88%
23:00 +21°C° 0 mm 2 mps 737 mmHg 91%
Show more